CW9861 Weather Reports


time (UTC)temp
C
wind
direction
speed
KPH
gust
KPH
rain 1hr
cm
rain 24hr
cm
rain mn
cm
humidity
%
barometer
mb
20260906191456 24 41 1.6 4.8 0.00 0.00 0.00 64 1018.9
20260906190956 25 68 1.6 6.4 0.00 0.00 0.00 61 1018.9
20260906190457 25 124 3.2 8.0 0.00 0.00 0.00 62 1018.8
20260906185956 25 86 1.6 6.4 0.00 0.00 0.00 61 1018.8
20260906185456 25 109 1.6 6.4 0.00 0.00 0.00 60 1018.9
20260906184956 25 87 1.6 6.4 0.00 0.00 0.00 62 1018.8
20260906184456 25 97 1.6 6.4 0.00 0.00 0.00 62 1018.8
20260906183956 25 330 1.6 9.7 0.00 0.00 0.00 67 1018.8
20260906183455 25 57 1.6 8.0 0.00 0.00 0.00 63 1018.9
20260906182956 25 51 1.6 6.4 0.00 0.00 0.00 67 1019.1
20260906182456 24 90 1.6 6.4 0.00 0.00 0.00 71 1019.0
20260906181956 23 74 0.0 8.0 0.00 0.00 0.00 68 1019.2
20260906181456 23 82 1.6 8.0 0.00 0.00 0.00 65 1019.2
20260906180957 24 11 1.6 8.0 0.00 0.00 0.00 65 1019.2
20260906180456 24 59 3.2 8.0 0.00 0.00 0.00 65 1019.2
20260906175957 25 59 0.0 6.4 0.00 0.00 0.00 65 1019.3
20260906175456 24 59 1.6 6.4 0.00 0.00 0.00 65 1019.4
20260906174956 24 47 1.6 6.4 0.00 0.00 0.00 66 1019.5
20260906174456 24 56 1.6 4.8 0.00 0.00 0.00 70 1019.4
20260906173956 24 8 1.6 3.2 0.00 0.00 0.00 69 1019.5
20260906173456 23 103 1.6 3.2 0.00 0.00 0.00 70 1019.5
20260906172956 23 66 0.0 3.2 0.00 0.00 0.00 69 1019.6
20260906172457 23 75 0.0 8.0 0.00 0.00 0.00 69 1019.5
20260906171956 23 118 3.2 8.0 0.00 0.00 0.00 66 1019.6
20260906171456 23 68 0.0 11.3 0.00 0.00 0.00 66 1019.6
20260906170957 25 93 1.6 11.3 0.00 0.00 0.00 69 1019.6
20260906170456 24 111 1.6 4.8 0.00 0.00 0.00 64 1019.6
20260906170000 24 84 1.6 4.8 0.00 0.00 0.00 65 1019.6
20260906165458 24 24 1.6 4.8 0.00 0.00 0.00 69 1019.7
20260906164957 23 70 0.0 9.7 0.00 0.00 0.00 70 1019.8
20260906164457 23 64 3.2 9.7 0.00 0.00 0.00 68 1019.7
20260906163957 23 356 1.6 6.4 0.00 0.00 0.00 69 1019.8
20260906163457 23 4 1.6 6.4 0.00 0.00 0.00 68 1019.8
20260906162957 23 89 3.2 8.0 0.00 0.00 0.00 71 1019.8
20260906162457 23 72 1.6 4.8 0.00 0.00 0.00 71 1019.9
20260906161957 23 53 1.6 8.0 0.00 0.00 0.00 68 1020.0
20260906161457 23 37 3.2 8.0 0.00 0.00 0.00 72 1020.0
20260906153956 22 118 1.6 8.0 0.00 0.00 0.00 75 1020.0
20260906153457 22 45 1.6 6.4 0.00 0.00 0.00 76 1020.0
20260906152956 22 11 1.6 6.4 0.00 0.00 0.00 76 1019.9
20260906152456 22 76 1.6 6.4 0.00 0.00 0.00 76 1019.9
20260906151956 22 54 1.6 6.4 0.00 0.00 0.00 74 1019.8
20260906151457 22 103 1.6 6.4 0.00 0.00 0.00 77 1019.8
20260906150956 22 37 1.6 4.8 0.00 0.00 0.00 77 1019.8
20260906150458 21 82 1.6 8.0 0.00 0.00 0.00 78 1019.8
20260906145957 21 74 3.2 6.4 0.00 0.00 0.00 76 1019.8
20260906145457 21 53 1.6 4.8 0.00 0.00 0.00 80 1019.7
20260906144956 21 43 3.2 9.7 0.00 0.00 0.00 80 1019.8
20260906144456 21 72 0.0 9.7 0.00 0.00 0.00 81 1019.7
20260906143957 20 71 3.2 8.0 0.00 0.00 0.00 80 1019.7
20260906143456 20 59 4.8 8.0 0.00 0.00 0.00 81 1019.6
20260906142956 20 68 3.2 8.0 0.00 0.00 0.00 81 1019.5
20260906142456 20 132 1.6 4.8 0.00 0.00 0.00 82 1019.6
20260906141956 20 150 0.0 4.8 0.00 0.00 0.00 84 1019.4
20260906141456 20 105 1.6 4.8 0.00 0.00 0.00 84 1019.2
20260906140956 20 68 0.0 3.2 0.00 0.00 0.00 84 1019.2
20260906132956 17 73 0.0 4.8 0.00 0.00 0.00 89 1019.4
20260906132457 16 101 0.0 4.8 0.00 0.00 0.00 90 1019.4
20260906131958 16 91 0.0 3.2 0.00 0.00 0.00 91 1019.3
20260906131456 15 96 0.0 4.8 0.00 0.00 0.00 91 1019.4
20260906130957 15 43 1.6 4.8 0.00 0.00 0.00 91 1019.4
20260906130457 15 95 0.0 4.8 0.00 0.00 0.00 92 1019.4
20260906125958 15 61 1.6 4.8 0.00 0.00 0.00 92 1019.2
20260906125457 14 57 1.6 3.2 0.00 0.00 0.00 92 1019.2
20260906124956 13 90 0.0 3.2 0.00 0.00 0.00 92 1019.2
20260906124457 13 90 1.6 3.2 0.00 0.00 0.00 91 1019.2
20260906123956 12 161 0.0 1.6 0.00 0.00 0.00 91 1019.2
20260906123457 12 249 0.0 3.2 0.00 0.00 0.00 91 1019.3
20260906122957 12 249 0.0 3.2 0.00 0.00 0.00 91 1019.2
20260906122457 12 59 0.0 0.0 0.00 0.00 0.00 91 1019.0
20260906121957 12 246 0.0 0.0 0.00 0.00 0.00 91 1019.0
20260906121457 12 246 0.0 1.6 0.00 0.00 0.00 91 1018.8
20260906120957 12 246 0.0 1.6 0.00 0.00 0.00 90 1018.7
20260906120457 12 251 0.0 1.6 0.00 0.00 0.00 90 1018.6
20260906115957 12 251 0.0 1.6 0.00 0.00 0.00 90 1018.6
20260906115456 11 251 0.0 0.0 0.00 0.00 0.00 90 1018.6
20260906114956 11 251 0.0 0.0 0.00 0.00 0.00 90 1018.6
20260906114455 12 251 0.0 1.6 0.00 0.00 0.00 90 1018.5
20260906113955 12 251 0.0 1.6 0.00 0.00 0.00 90 1018.5
20260906113455 12 179 0.0 1.6 0.00 0.00 0.00 90 1018.6
20260906112956 12 234 0.0 1.6 0.00 0.00 0.00 90 1018.6
20260906112457 12 32 0.0 0.0 0.00 0.00 0.00 90 1018.5
20260906111956 12 32 0.0 0.0 0.00 0.00 0.00 90 1018.3
20260906111456 12 32 0.0 0.0 0.00 0.00 0.00 90 1018.4
20260906110956 12 32 0.0 0.0 0.00 0.00 0.00 90 1018.3
20260906110456 12 32 0.0 0.0 0.00 0.00 0.00 90 1018.3
20260906105957 12 32 0.0 0.0 0.00 0.00 0.00 90 1018.3
20260906102456 12 37 0.0 0.0 0.00 0.00 0.00 90 1018.3
20260906101956 12 37 0.0 0.0 0.00 0.00 0.00 90 1018.3
20260906101456 12 37 0.0 0.0 0.00 0.00 0.00 90 1018.2
20260906100956 13 34 0.0 0.0 0.00 0.00 0.00 90 1018.1
20260906100455 13 34 0.0 0.0 0.00 0.00 0.00 90 1018.2
20260906095956 13 34 0.0 0.0 0.00 0.00 0.00 90 1018.3
20260906095456 13 34 0.0 0.0 0.00 0.00 0.00 90 1018.3
20260906094958 13 34 0.0 0.0 0.00 0.00 0.00 90 1018.3
20260906094456 13 34 0.0 0.0 0.00 0.00 0.00 90 1018.1
20260906093957 13 34 0.0 0.0 0.00 0.00 0.00 90 1018.1
20260906093457 13 34 0.0 0.0 0.00 0.00 0.00 90 1018.1
20260906092957 13 34 0.0 0.0 0.00 0.00 0.00 90 1018.0
20260906092457 13 34 0.0 0.0 0.00 0.00 0.00 90 1017.9
20260906091957 13 34 0.0 0.0 0.00 0.00 0.00 90 1017.9
20260906091458 13 34 0.0 0.0 0.00 0.00 0.00 90 1017.7
20260906090957 13 34 0.0 0.0 0.00 0.00 0.00 90 1017.8
20260906090457 13 34 0.0 1.6 0.00 0.00 0.00 90 1017.8
20260906085958 13 34 0.0 1.6 0.00 0.00 0.00 90 1017.7
20260906085456 13 34 0.0 1.6 0.00 0.00 0.00 90 1017.7
20260906084957 13 34 0.0 0.0 0.00 0.00 0.00 90 1017.7
20260906084456 13 34 0.0 1.6 0.00 0.00 0.00 90 1017.7
20260906083957 13 34 0.0 1.6 0.00 0.00 0.00 90 1017.8
20260906083456 13 60 0.0 0.0 0.00 0.00 0.00 90 1017.6
20260906082957 13 72 0.0 0.0 0.00 0.00 0.00 90 1017.5
20260906082457 13 72 0.0 0.0 0.00 0.00 0.00 90 1017.4
20260906081956 13 72 0.0 0.0 0.00 0.00 0.00 90 1017.4
20260906081458 14 72 0.0 0.0 0.00 0.00 0.00 90 1017.4
20260906080956 14 72 0.0 0.0 0.00 0.00 0.00 90 1017.4
20260906080458 14 72 0.0 0.0 0.00 0.00 0.00 90 1017.4
20260906075959 14 68 0.0 0.0 0.00 0.00 0.00 90 1017.4
20260906075457 14 84 0.0 3.2 0.00 0.00 0.00 90 1017.5
20260906074957 14 84 0.0 3.2 0.00 0.00 0.00 90 1017.6
20260906074457 14 34 0.0 1.6 0.00 0.00 0.00 90 1017.6
20260906073957 14 75 0.0 1.6 0.00 0.00 0.00 90 1017.4
20260906073457 13 75 0.0 0.0 0.00 0.00 0.00 89 1017.4
20260906072957 13 75 0.0 1.6 0.00 0.00 0.00 89 1017.4
20260906072457 13 75 0.0 1.6 0.00 0.00 0.00 89 1017.3
20260906071957 13 75 0.0 0.0 0.00 0.00 0.00 88 1017.4
20260906071457 13 75 0.0 0.0 0.00 0.00 0.00 88 1017.4
20260906070956 13 75 0.0 0.0 0.00 0.00 0.00 88 1017.5
20260906070457 14 75 0.0 0.0 0.00 0.00 0.00 88 1017.6
20260906065959 14 75 0.0 0.0 0.00 0.00 0.00 88 1017.6
20260906065456 14 75 0.0 0.0 0.00 0.00 0.00 88 1017.6
20260906064956 14 75 0.0 0.0 0.00 0.00 0.00 88 1017.7
20260906064456 14 75 0.0 0.0 0.00 0.00 0.00 88 1017.7
20260906063958 14 75 0.0 0.0 0.00 0.00 0.00 87 1017.7
20260906063456 14 75 0.0 0.0 0.00 0.00 0.00 87 1017.6
20260906062957 15 75 0.0 0.0 0.00 0.00 0.00 87 1017.6
20260906062456 15 75 0.0 0.0 0.00 0.00 0.00 87 1017.5
20260906061957 15 75 0.0 0.0 0.00 0.00 0.00 87 1017.4
20260906054456 15 75 0.0 0.0 0.00 0.00 0.00 87 1017.5
20260906053956 15 75 0.0 0.0 0.00 0.00 0.00 88 1017.4
20260906053456 15 75 0.0 0.0 0.00 0.00 0.00 87 1017.4
20260906052957 16 75 0.0 1.6 0.00 0.00 0.00 87 1017.3
20260906052456 16 75 0.0 1.6 0.00 0.00 0.00 87 1017.1
20260906051955 16 75 0.0 0.0 0.00 0.00 0.00 87 1017.2
20260906051456 16 75 0.0 0.0 0.00 0.00 0.00 87 1017.3
20260906050956 16 75 0.0 0.0 0.00 0.00 0.00 87 1017.3
20260906050456 16 75 0.0 0.0 0.00 0.00 0.00 87 1017.2
20260906045957 16 75 0.0 0.0 0.00 0.00 0.00 87 1017.1
20260906045458 16 75 0.0 0.0 0.00 0.00 0.00 87 1017.0
20260906044957 16 75 0.0 1.6 0.00 0.00 0.00 87 1016.9
20260906044457 16 53 0.0 0.0 0.00 0.00 0.00 87 1016.9
20260906040958 17 276 0.0 1.6 0.00 0.00 0.00 86 1016.6
20260906040457 17 70 0.0 3.2 0.00 0.00 0.00 86 1016.7
20260906040002 17 70 0.0 3.2 0.00 0.00 0.00 86 1016.7
20260906035457 17 78 0.0 1.6 0.00 0.00 0.00 85 1016.7
20260906034958 17 78 0.0 0.0 0.00 0.00 0.00 85 1016.7
20260906034459 17 78 0.0 0.0 0.00 0.00 0.00 85 1016.7
20260906033958 17 78 0.0 0.0 0.00 0.00 0.00 85 1016.5
20260906033457 17 78 0.0 1.6 0.00 0.00 0.00 85 1016.4
20260906032957 17 78 0.0 1.6 0.00 0.00 0.00 85 1016.4
20260906032501 17 78 0.0 1.6 0.00 0.00 0.00 85 1016.6
20260906031958 17 78 0.0 1.6 0.00 0.00 0.00 85 1016.4
20260906031458 17 78 0.0 1.6 0.00 0.00 0.00 84 1016.4
20260906030957 17 78 0.0 1.6 0.00 0.00 0.00 84 1016.4
20260906030458 17 77 0.0 0.0 0.00 0.00 0.00 84 1016.2
20260906025957 18 91 0.0 1.6 0.00 0.00 0.00 84 1016.2
20260906025457 18 105 0.0 1.6 0.00 0.00 0.00 84 1016.2
20260906024958 18 105 0.0 1.6 0.00 0.00 0.00 84 1016.1
20260906024457 18 105 0.0 1.6 0.00 0.00 0.00 84 1016.3
20260906023957 18 50 0.0 1.6 0.00 0.00 0.00 84 1016.1
20260906023457 18 50 0.0 1.6 0.00 0.00 0.00 84 1016.2
20260906022958 18 307 0.0 1.6 0.00 0.00 0.00 84 1016.2
20260906015458 18 83 0.0 0.0 0.00 0.00 0.00 83 1015.9
20260906014957 18 83 0.0 0.0 0.00 0.00 0.00 83 1015.7
20260906014457 19 83 0.0 0.0 0.00 0.00 0.00 83 1015.7
20260906013958 19 83 0.0 0.0 0.00 0.00 0.00 82 1015.7
20260906013457 19 83 0.0 0.0 0.00 0.00 0.00 82 1015.7
20260906012957 19 83 0.0 0.0 0.00 0.00 0.00 82 1015.7
20260906012458 20 83 0.0 0.0 0.00 0.00 0.00 82 1015.6
20260906011957 20 83 0.0 0.0 0.00 0.00 0.00 82 1015.5
20260906011458 20 83 0.0 0.0 0.00 0.00 0.00 82 1015.3
20260906010957 20 83 0.0 0.0 0.00 0.00 0.00 80 1015.3
20260906010457 20 83 0.0 0.0 0.00 0.00 0.00 80 1015.3
20260906005957 20 83 0.0 0.0 0.00 0.00 0.00 80 1015.2
20260906005457 21 83 0.0 0.0 0.00 0.00 0.00 81 1015.1
20260906004957 21 83 0.0 0.0 0.00 0.00 0.00 80 1015.0
20260906004456 21 83 0.0 0.0 0.00 0.00 0.00 79 1014.9
20260906003956 21 83 0.0 0.0 0.00 0.00 0.00 79 1014.9
20260906003456 21 83 0.0 0.0 0.00 0.00 0.00 79 1015.0
20260906002956 22 83 0.0 0.0 0.00 0.00 0.00 79 1015.0
20260906002457 22 83 0.0 0.0 0.00 0.00 0.00 79 1015.0
20260906001956 22 83 0.0 0.0 0.00 0.00 0.00 79 1015.0
20260906001457 22 83 0.0 0.0 0.00 0.00 0.00 79 1015.0
20260906000956 22 83 0.0 0.0 0.00 0.00 0.00 78 1015.0
20260906000456 22 83 0.0 0.0 0.00 0.00 0.00 78 1015.2
20260905235957 22 83 0.0 1.6 0.00 0.00 0.00 78 1015.1
20260905235457 22 83 0.0 1.6 0.00 0.00 0.00 77 1015.0
20260905234957 23 83 0.0 3.2 0.00 0.00 0.00 77 1014.9
20260905234457 23 86 1.6 3.2 0.00 0.00 0.00 76 1014.9
20260905233957 23 91 0.0 1.6 0.00 0.00 0.00 77 1015.0
20260905233457 23 68 0.0 1.6 0.00 0.00 0.00 77 1015.0
20260905232957 23 68 0.0 1.6 0.00 0.00 0.00 77 1015.0
20260905232457 23 77 0.0 1.6 0.00 0.00 0.00 78 1015.0
20260905231957 23 77 0.0 1.6 0.00 0.00 0.00 77 1015.1
20260905231457 23 93 0.0 3.2 0.00 0.00 0.00 77 1015.0
20260905230958 23 86 0.0 1.6 0.00 0.00 0.00 77 1015.0
20260905230457 23 86 0.0 4.8 0.00 0.00 0.00 77 1014.9
20260905225957 23 54 0.0 3.2 0.00 0.00 0.00 76 1014.8
20260905225456 23 78 1.6 3.2 0.00 0.00 0.00 75 1014.7
20260905224957 24 70 0.0 3.2 0.00 0.00 0.00 75 1014.7
20260905224456 24 74 0.0 4.8 0.00 0.00 0.00 74 1014.7
20260905223956 24 48 0.0 6.4 0.00 0.00 0.00 73 1014.6
20260905223456 24 23 3.2 6.4 0.00 0.00 0.00 72 1014.6
20260905222956 25 78 0.0 3.2 0.00 0.00 0.00 74 1014.5
20260905222456 25 66 1.6 6.4 0.00 0.00 0.00 73 1014.5
20260905221956 25 59 0.0 6.4 0.00 0.00 0.00 73 1014.6
20260905221457 25 357 1.6 6.4 0.00 0.00 0.00 72 1014.5
20260905220956 25 89 1.6 6.4 0.00 0.00 0.00 73 1014.4
20260905220456 25 120 1.6 6.4 0.00 0.00 0.00 72 1014.3
20260905215957 25 40 1.6 4.8 0.00 0.00 0.00 75 1014.4
20260905215456 25 72 1.6 3.2 0.00 0.00 0.00 77 1014.3
20260905214956 25 79 0.0 4.8 0.00 0.00 0.00 76 1014.2
20260905214457 24 89 1.6 8.0 0.00 0.00 0.00 77 1014.2
20260905213956 24 66 1.6 8.0 0.00 0.00 0.00 75 1014.1
20260905213456 25 86 1.6 4.8 0.00 0.00 0.00 76 1014.2
20260905212956 25 78 1.6 4.8 0.00 0.00 0.00 75 1014.2
20260905212456 26 59 1.6 4.8 0.00 0.00 0.00 71 1014.2
20260905211955 26 53 1.6 4.8 0.00 0.00 0.00 72 1014.2
20260905211456 26 64 1.6 9.7 0.00 0.00 0.00 69 1014.1
20260905210956 26 58 3.2 9.7 0.00 0.00 0.00 68 1014.1
20260905210456 26 49 1.6 6.4 0.00 0.00 0.00 70 1014.1
20260905205959 26 137 0.0 3.2 0.00 0.00 0.00 74 1014.1
20260905205457 26 70 1.6 4.8 0.00 0.00 0.00 72 1014.1
20260905204958 26 100 1.6 4.8 0.00 0.00 0.00 75 1014.0
20260905204457 26 96 1.6 11.3 0.00 0.00 0.00 74 1014.1
20260905200957 25 58 1.6 4.8 0.00 0.00 0.00 77 1014.5
20260905200457 26 84 1.6 4.8 0.00 0.00 0.00 73 1014.4
20260905195958 26 63 1.6 4.8 0.00 0.00 0.00 75 1014.4
20260905195458 25 70 3.2 8.0 0.00 0.00 0.00 77 1014.4
20260905194957 25 107 3.2 8.0 0.00 0.00 0.00 77 1014.4
20260905194457 24 58 0.0 4.8 0.00 0.00 0.00 78 1014.4
20260905193957 24 102 1.6 4.8 0.00 0.00 0.00 80 1014.5